Time,TemperatureF,DewpointF,PressureIn,WindDirection,WindDirectionDegrees,WindSpeedMPH,WindSpeedGustMPH,Humidity,HourlyPrecipIn,Conditions,Clouds,dailyrainin,SoftwareType,DateUTC
2013-01-05 00:02:00,26.8,19.0,30.18,WNW,290,3.0,6.0,73,0.00,,,0.00,weatherlink.com 1.10,2013-01-05 05:02:00,
2013-01-05 00:17:00,26.5,19.0,30.19,WSW,253,4.0,9.0,73,0.00,,,0.00,weatherlink.com 1.10,2013-01-05 05:17:00,
2013-01-05 00:32:00,26.2,19.0,30.19,West,274,2.0,7.0,73,0.00,,,0.00,weatherlink.com 1.10,2013-01-05 05:32:00,
2013-01-05 00:47:00,26.1,19.0,30.19,NW,312,0.0,6.0,73,0.00,,,0.00,weatherlink.com 1.10,2013-01-05 05:47:00,
2013-01-05 01:02:00,25.8,18.0,30.20,WNW,287,1.0,4.0,73,0.00,,,0.00,weatherlink.com 1.10,2013-01-05 06:02:00,
2013-01-05 01:17:00,25.7,18.0,30.20,WNW,288,2.0,7.0,74,0.00,,,0.00,weatherlink.com 1.10,2013-01-05 06:17:00,
2013-01-05 01:32:00,25.8,19.0,30.20,West,261,1.0,7.0,74,0.00,,,0.00,weatherlink.com 1.10,2013-01-05 06:32:00,
2013-01-05 01:47:00,26.1,19.0,30.21,WNW,283,0.0,6.0,74,0.00,,,0.00,weatherlink.com 1.10,2013-01-05 06:47:00,
2013-01-05 02:02:00,26.3,19.0,30.22,WNW,289,0.0,9.0,74,0.00,,,0.00,weatherlink.com 1.10,2013-01-05 07:02:00,
2013-01-05 02:17:00,26.3,19.0,30.22,ENE,71,0.0,6.0,74,0.00,,,0.00,weatherlink.com 1.10,2013-01-05 07:17:00,
2013-01-05 02:32:00,26.3,19.0,30.23,WNW,284,3.0,6.0,74,0.00,,,0.00,weatherlink.com 1.10,2013-01-05 07:32:00,
2013-01-05 02:48:00,26.3,19.0,30.23,West,274,3.0,7.0,74,0.00,,,0.00,weatherlink.com 1.10,2013-01-05 07:48:00,
2013-01-05 03:03:00,26.4,19.0,30.23,WNW,287,2.0,7.0,74,0.00,,,0.00,weatherlink.com 1.10,2013-01-05 08:03:00,
2013-01-05 03:33:00,26.4,20.0,30.25,WSW,248,1.0,8.0,75,0.00,,,0.00,weatherlink.com 1.10,2013-01-05 08:33:00,
2013-01-05 03:48:00,26.3,20.0,30.25,West,262,3.0,5.0,76,0.00,,,0.00,weatherlink.com 1.10,2013-01-05 08:48:00,
2013-01-05 04:03:00,26.2,20.0,30.25,West,268,2.0,6.0,76,0.00,,,0.00,weatherlink.com 1.10,2013-01-05 09:03:00,
2013-01-05 04:18:00,26.2,20.0,30.25,WNW,292,2.0,5.0,77,0.00,,,0.00,weatherlink.com 1.10,2013-01-05 09:18:00,
2013-01-05 04:33:00,26.1,20.0,30.26,WNW,292,4.0,11.0,77,0.00,,,0.00,weatherlink.com 1.10,2013-01-05 09:33:00,
2013-01-05 04:48:00,26.1,20.0,30.26,WNW,289,2.0,8.0,78,0.00,,,0.00,weatherlink.com 1.10,2013-01-05 09:48:00,
2013-01-05 05:03:00,26.1,20.0,30.27,WSW,257,0.0,11.0,78,0.00,,,0.00,weatherlink.com 1.10,2013-01-05 10:03:00,
2013-01-05 05:18:00,26.1,20.0,30.26,WNW,288,1.0,8.0,78,0.00,,,0.00,weatherlink.com 1.10,2013-01-05 10:18:00,
2013-01-05 05:33:00,26.0,20.0,30.27,West,277,2.0,7.0,78,0.00,,,0.00,weatherlink.com 1.10,2013-01-05 10:33:00,
2013-01-05 05:48:00,25.9,20.0,30.28,WNW,300,1.0,7.0,79,0.00,,,0.00,weatherlink.com 1.10,2013-01-05 10:48:00,
2013-01-05 06:03:00,25.9,20.0,30.28,WSW,245,3.0,9.0,79,0.00,,,0.00,weatherlink.com 1.10,2013-01-05 11:03:00,
2013-01-05 06:18:00,25.9,21.0,30.29,West,260,4.0,11.0,80,0.00,,,0.00,weatherlink.com 1.10,2013-01-05 11:18:00,
2013-01-05 06:33:00,25.9,21.0,30.29,West,264,0.0,5.0,81,0.00,,,0.00,weatherlink.com 1.10,2013-01-05 11:33:00,
2013-01-05 06:48:00,25.9,21.0,30.30,WSW,246,1.0,8.0,81,0.00,,,0.00,weatherlink.com 1.10,2013-01-05 11:48:00,
2013-01-05 07:03:00,25.9,21.0,30.30,NW,312,0.0,4.0,81,0.00,,,0.00,weatherlink.com 1.10,2013-01-05 12:03:00,
2013-01-05 07:18:00,25.9,21.0,30.30,West,268,1.0,5.0,81,0.00,,,0.00,weatherlink.com 1.10,2013-01-05 12:18:00,
2013-01-05 07:33:00,25.9,21.0,30.29,West,277,0.0,7.0,81,0.00,,,0.00,weatherlink.com 1.10,2013-01-05 12:33:00,
2013-01-05 07:48:00,25.9,21.0,30.31,WNW,288,1.0,3.0,81,0.00,,,0.00,weatherlink.com 1.10,2013-01-05 12:48:00,
2013-01-05 08:03:00,26.0,21.0,30.32,West,273,3.0,6.0,81,0.00,,,0.00,weatherlink.com 1.10,2013-01-05 13:03:00,
2013-01-05 08:18:00,26.1,21.0,30.32,WSW,245,0.0,3.0,81,0.00,,,0.00,weatherlink.com 1.10,2013-01-05 13:18:00,
2013-01-05 08:33:00,26.1,21.0,30.33,West,260,0.0,6.0,81,0.00,,,0.00,weatherlink.com 1.10,2013-01-05 13:33:00,
2013-01-05 08:48:00,26.3,21.0,30.34,West,270,2.0,4.0,81,0.00,,,0.00,weatherlink.com 1.10,2013-01-05 13:48:00,
2013-01-05 09:03:00,26.5,21.0,30.35,WSW,252,2.0,6.0,81,0.00,,,0.00,weatherlink.com 1.10,2013-01-05 14:03:00,
2013-01-05 09:18:00,26.6,22.0,30.34,SSE,154,2.0,6.0,81,0.00,,,0.00,weatherlink.com 1.10,2013-01-05 14:18:00,
2013-01-05 09:33:00,26.7,21.0,30.34,SSW,200,1.0,5.0,80,0.00,,,0.00,weatherlink.com 1.10,2013-01-05 14:33:00,
2013-01-05 09:48:00,26.9,22.0,30.34,West,276,1.0,5.0,81,0.00,,,0.00,weatherlink.com 1.10,2013-01-05 14:48:00,
2013-01-05 10:03:00,27.2,22.0,30.35,West,273,1.0,5.0,80,0.00,,,0.00,weatherlink.com 1.10,2013-01-05 15:03:00,
2013-01-05 10:18:00,27.4,22.0,30.34,WSW,255,2.0,4.0,79,0.00,,,0.00,weatherlink.com 1.10,2013-01-05 15:18:00,
2013-01-05 10:33:00,27.4,22.0,30.35,West,262,1.0,5.0,79,0.00,,,0.00,weatherlink.com 1.10,2013-01-05 15:33:00,
2013-01-05 10:48:00,27.5,22.0,30.34,West,266,4.0,10.0,79,0.00,,,0.00,weatherlink.com 1.10,2013-01-05 15:48:00,
2013-01-05 11:03:00,27.8,22.0,30.34,WSW,248,2.0,8.0,79,0.00,,,0.00,weatherlink.com 1.10,2013-01-05 16:03:00,
2013-01-05 11:18:00,28.2,22.0,30.32,West,266,0.0,5.0,78,0.00,,,0.00,weatherlink.com 1.10,2013-01-05 16:18:00,
2013-01-05 11:34:00,28.5,22.0,30.31,WSW,256,2.0,7.0,78,0.00,,,0.00,weatherlink.com 1.10,2013-01-05 16:34:00,
2013-01-05 11:49:00,28.7,23.0,30.31,WSW,244,0.0,5.0,78,0.00,,,0.00,weatherlink.com 1.10,2013-01-05 16:49:00,
2013-01-05 12:04:00,29.4,23.0,30.30,West,262,1.0,6.0,76,0.00,,,0.00,weatherlink.com 1.10,2013-01-05 17:04:00,
2013-01-05 12:19:00,29.6,23.0,30.30,WSW,238,2.0,5.0,76,0.00,,,0.00,weatherlink.com 1.10,2013-01-05 17:19:00,
2013-01-05 12:34:00,30.0,23.0,30.29,SW,231,1.0,7.0,76,0.00,,,0.00,weatherlink.com 1.10,2013-01-05 17:34:00,
2013-01-05 12:49:00,29.9,23.0,30.28,West,281,1.0,6.0,75,0.00,,,0.00,weatherlink.com 1.10,2013-01-05 17:49:00,
2013-01-05 13:04:00,30.3,24.0,30.27,NW,306,1.0,3.0,76,0.00,,,0.00,weatherlink.com 1.10,2013-01-05 18:04:00,
2013-01-05 13:19:00,31.9,24.0,30.25,SE,146,2.0,5.0,73,0.00,,,0.00,weatherlink.com 1.10,2013-01-05 18:19:00,
2013-01-05 13:34:00,32.0,24.0,30.25,SSE,165,0.0,9.0,72,0.00,,,0.00,weatherlink.com 1.10,2013-01-05 18:34:00,
2013-01-05 13:49:00,32.8,24.0,30.24,West,263,0.0,5.0,71,0.00,,,0.00,weatherlink.com 1.10,2013-01-05 18:49:00,
2013-01-05 14:04:00,33.1,24.0,30.23,WSW,238,2.0,6.0,70,0.00,,,0.00,weatherlink.com 1.10,2013-01-05 19:04:00,
2013-01-05 14:19:00,33.5,24.0,30.23,WSW,250,0.0,5.0,69,0.00,,,0.00,weatherlink.com 1.10,2013-01-05 19:19:00,
2013-01-05 14:34:00,33.8,25.0,30.23,WSW,257,1.0,7.0,69,0.00,,,0.00,weatherlink.com 1.10,2013-01-05 19:34:00,
2013-01-05 14:49:00,34.3,25.0,30.22,WNW,293,2.0,6.0,69,0.00,,,0.00,weatherlink.com 1.10,2013-01-05 19:49:00,
2013-01-05 15:04:00,34.4,24.0,30.22,WSW,243,0.0,3.0,66,0.00,,,0.00,weatherlink.com 1.10,2013-01-05 20:04:00,
2013-01-05 15:19:00,33.7,24.0,30.23,West,269,0.0,5.0,68,0.00,,,0.00,weatherlink.com 1.10,2013-01-05 20:19:00,
2013-01-05 15:34:00,33.7,25.0,30.23,WSW,248,0.0,4.0,69,0.00,,,0.00,weatherlink.com 1.10,2013-01-05 20:34:00,
2013-01-05 15:50:00,33.8,25.0,30.22,WSW,243,0.0,4.0,69,0.00,,,0.00,weatherlink.com 1.10,2013-01-05 20:50:00,
2013-01-05 16:04:00,34.0,25.0,30.22,WSW,242,0.0,2.0,69,0.00,,,0.00,weatherlink.com 1.10,2013-01-05 21:04:00,
2013-01-05 16:19:00,33.8,24.0,30.21,SSW,204,0.0,3.0,68,0.00,,,0.00,weatherlink.com 1.10,2013-01-05 21:19:00,
2013-01-05 16:34:00,33.6,24.0,30.20,SSW,204,0.0,2.0,69,0.00,,,0.00,weatherlink.com 1.10,2013-01-05 21:34:00,
2013-01-05 16:49:00,33.0,25.0,30.20,SW,217,0.0,2.0,71,0.00,,,0.00,weatherlink.com 1.10,2013-01-05 21:49:00,
2013-01-05 17:04:00,31.3,24.0,30.20,SW,218,0.0,1.0,74,0.00,,,0.00,weatherlink.com 1.10,2013-01-05 22:04:00,
2013-01-05 17:19:00,29.6,23.0,30.20,WSW,249,0.0,1.0,76,0.00,,,0.00,weatherlink.com 1.10,2013-01-05 22:19:00,
2013-01-05 17:34:00,28.2,22.0,30.19,WSW,253,0.0,1.0,78,0.00,,,0.00,weatherlink.com 1.10,2013-01-05 22:34:00,
2013-01-05 17:49:00,27.4,22.0,30.19,WSW,252,0.0,0.0,80,0.00,,,0.00,weatherlink.com 1.10,2013-01-05 22:49:00,
2013-01-05 18:04:00,26.7,22.0,30.19,WSW,253,0.0,0.0,81,0.00,,,0.00,weatherlink.com 1.10,2013-01-05 23:04:00,
2013-01-05 18:19:00,25.7,21.0,30.19,WSW,253,0.0,0.0,83,0.00,,,0.00,weatherlink.com 1.10,2013-01-05 23:19:00,
2013-01-05 18:34:00,24.9,21.0,30.19,WSW,253,0.0,0.0,84,0.00,,,0.00,weatherlink.com 1.10,2013-01-05 23:34:00,
2013-01-05 18:49:00,24.1,20.0,30.18,WSW,252,0.0,1.0,83,0.00,,,0.00,weatherlink.com 1.10,2013-01-05 23:49:00,
2013-01-05 19:04:00,23.3,20.0,30.18,WSW,252,0.0,0.0,85,0.00,,,0.00,weatherlink.com 1.10,2013-01-06 00:04:00,
2013-01-05 19:19:00,23.2,20.0,30.18,WSW,252,0.0,0.0,86,0.00,,,0.00,weatherlink.com 1.10,2013-01-06 00:19:00,
2013-01-05 19:34:00,23.5,20.0,30.18,WSW,252,0.0,0.0,86,0.00,,,0.00,weatherlink.com 1.10,2013-01-06 00:34:00,
2013-01-05 19:49:00,23.9,20.0,30.17,WSW,253,0.0,0.0,86,0.00,,,0.00,weatherlink.com 1.10,2013-01-06 00:49:00,
2013-01-05 20:04:00,24.4,21.0,30.16,WSW,253,0.0,0.0,86,0.00,,,0.00,weatherlink.com 1.10,2013-01-06 01:04:00,
2013-01-05 20:20:00,24.9,21.0,30.16,WSW,252,0.0,0.0,86,0.00,,,0.00,weatherlink.com 1.10,2013-01-06 01:20:00,
2013-01-05 20:35:00,25.1,22.0,30.14,WSW,252,0.0,0.0,86,0.00,,,0.00,weatherlink.com 1.10,2013-01-06 01:35:00,
2013-01-05 20:50:00,25.3,22.0,30.15,WSW,253,0.0,0.0,86,0.00,,,0.00,weatherlink.com 1.10,2013-01-06 01:50:00,
2013-01-05 21:05:00,25.4,22.0,30.15,West,276,0.0,1.0,87,0.00,,,0.00,weatherlink.com 1.10,2013-01-06 02:05:00,
2013-01-05 21:20:00,25.7,22.0,30.16,West,276,0.0,1.0,86,0.00,,,0.00,weatherlink.com 1.10,2013-01-06 02:20:00,
2013-01-05 21:35:00,26.0,23.0,30.16,West,276,0.0,0.0,87,0.00,,,0.00,weatherlink.com 1.10,2013-01-06 02:35:00,
2013-01-05 21:50:00,26.4,23.0,30.16,West,276,0.0,1.0,87,0.00,,,0.00,weatherlink.com 1.10,2013-01-06 02:50:00,
2013-01-05 22:05:00,26.7,23.0,30.15,West,276,0.0,0.0,87,0.00,,,0.00,weatherlink.com 1.10,2013-01-06 03:05:00,
2013-01-05 22:20:00,26.8,24.0,30.14,West,276,0.0,0.0,87,0.00,,,0.00,weatherlink.com 1.10,2013-01-06 03:20:00,
2013-01-05 22:35:00,27.2,24.0,30.14,West,276,0.0,0.0,87,0.00,,,0.00,weatherlink.com 1.10,2013-01-06 03:35:00,
2013-01-05 22:50:00,27.7,24.0,30.13,West,276,0.0,0.0,87,0.00,,,0.00,weatherlink.com 1.10,2013-01-06 03:50:00,
2013-01-05 23:05:00,28.0,25.0,30.13,West,276,0.0,0.0,87,0.00,,,0.00,weatherlink.com 1.10,2013-01-06 04:05:00,
2013-01-05 23:20:00,28.3,25.0,30.12,West,276,0.0,0.0,87,0.00,,,0.00,weatherlink.com 1.10,2013-01-06 04:20:00,
2013-01-05 23:35:00,29.0,25.0,30.12,West,276,0.0,1.0,86,0.00,,,0.00,weatherlink.com 1.10,2013-01-06 04:35:00,
2013-01-05 23:50:00,30.0,25.0,30.13,WSW,256,0.0,1.0,82,0.00,,,0.00,weatherlink.com 1.10,2013-01-06 04:50:00,